Pagina principale
METAR-TAF:

METAR-TAF

Aeroporti :

Monte Cimone, Italia

latitudine: 44-12N, longitudine: 010-42E, altezza: 2165 m

Osservazione

Il bollettino è stato emesso 32 minuti fa, alle 09:55 UTC
Vento 4 kt da nord-ovest
Temperature 6°C
Umidità 61%
Pressione 1023 hPa
Visibilità 10 km o più
Poco nuvoloso ad un'altezza di 300 ft

METAR: LIVC 210955Z 32004KT 9999 FEW003 06/M01 Q1023 RMK FEW MON LIB VAL NIL VIS MIN 9999

Ora: 12:27 (10:27 UTC)


TAF: mancante

Osservazioni e previsioni meteorologiche di più di 4000 aeroporti (messaggi METAR e TAF).

Le stazioni disponibili sono rappresentate dai dischi gialli e rossi sulla carta.

Puntare il mouse per vedere il nome della stazione.

Clicca sopra per visualizzare le osservazioni e previsioni meteorologiche.

Per cambiare la mappa : fare clic sui pulsanti verdi con una croce nera per ingrandire, il pulsante verde con un trattino per diminuire, o sulla freccia verde per le mappe adiacenti.


METAR-TAF: